星链-5590 (STARLINK-5590 )

导读 | 星芒AI

STARLINK-5590 是 SpaceX Starlink 项目中的一颗低轨通信卫星,属于该星座的众多卫星之一,旨在为全球提供高速互联网服务。该卫星运行在约 550 公里的近地轨道上,采用先进的通信技术,支持宽带数据传输。作为 Starlink 计划的一部分,STARLINK-5590 有助于扩大覆盖范围,提升网络连接质量,特别是在偏远和网络基础设施薄弱的地区。该卫星于 2023 年通过 Falcon 9 火箭发射入轨,是 SpaceX 推进全球互联网覆盖目标的重要组成部分。

基本信息
目录编号:
55371
目录名称:
STARLINK-5590
国际标识:
2023-013AS
轨道中心:
EARTH
卫星名称:
星链-5590
卫星全名:
星链-5590 (STARLINK-5590 )
卫星状态:
在轨 (已飞行1060 天)
发射日期:
2023-01-26 UTC
国别 :
美国 (US)
星等 :
--
轨道信息
数据来源 国际轨道数据 AOE轨道数据
星历时间 2025-12-21T11:02:20+0800
13小时前
查看轨道信息
2025-12-19T13:00:00+0800
2天前
查看轨道信息
半长轴 6937.235km 6937.207km
偏心率 0.00011 0.000001
轨道倾角 43.004° 43.005°
近地点辐角 268.740° 352.986°
升交点赤经 20.020° 30.446°
平近点角 91.332° 58.948°
近地点 558.334km 559.063km
远地点 559.862km 559.077km
周期 95.838分钟 95.838分钟
每日圈数 15.025301 15.025391
详细信息
固有亮度:
5
最大亮度:
2.5
卫星平台:
Starlink v1.5
覆盖范围:
全球
运营商:
太空探索技术公司
运营商所在国:
美国
制造商(研发单位):
太空探索技术公司
制造商所在国:
美国
使用方式:
暂无
卫星简介
星链(Starlink)计划是由太空探索技术公司(SpaceX)提出的一个巨型低轨卫星互联网星座项目,计划在2019年至2024年间在太空搭建由约1.2万颗卫星组成的“星链”网络,其中1584颗将部署在地球上空550千米处的近地轨道,并从2020年开始工作。该卫星仍在工作。
2D轨道图
3D轨道图
轨道高度分析图
轨道倾角分析图
轨道综合分析图
查看轨道综合分析图